Regional Weather Roundup
Issued by NWS

Home | Current Version | Previous Version | Text Only | Print | Product List | Glossary On
Versions: 1 2 3 4 5 6 7 8 9 10 11 12 13 14 15 16 17 18 19 20 21 22 23 24 25 26 27 28 29 30 31 32 33 34 35 36 37 38 39 40 41 42 43 44 45 46 47 48 49 50
000
ASUS43 KMKX 171511
RWRWI

WISCONSIN REGIONAL WEATHER ROUNDUP
NATIONAL WEATHER SERVICE MILWAUKEE/SULLIVAN WI
1000 AM CDT SAT AUG 17 2019

NOTE: "FAIR" INDICATES FEW OR NO CLOUDS BELOW 12,000 FEET WITH NO
SIGNIFICANT WEATHER AND/OR OBSTRUCTIONS TO VISIBILITY.

WIZ001-002-006>008-014>016-023>028-171600-
NORTHWEST WISCONSIN

CITY           SKY/WX    TMP DP  RH WIND       PRES   REMARKS
SUPERIOR ARPT  FAIR      74  62  65 SW6       29.82F
ASHLAND        FAIR      74  62  66 SW7       29.85F
HAYWARD        FAIR      73  61  65 S7        29.88S
SIREN          FAIR      76  59  55 SW6       29.86F
CUMBERLAND     FAIR      70  59  68 SW3       29.88F
RICE LAKE      FAIR      72  54  53 SW5       29.89F
CHETEK         FAIR      71  63  76 SW3       29.88F
LADYSMITH      FAIR      71  65  82 CALM      29.91S
EAU CLAIRE     FAIR      70  61  73 CALM      29.88S
MENOMONIE      FAIR      66  59  78 SE3       29.88S
NEW RICHMOND   FAIR      73  60  63 SW7       29.87S
OSCEOLA        FAIR      74  63  68 SW7       29.88F
$$

WIZ003>005-009-010-017-018-171600-
NORTH CENTRAL WISCONSIN

CITY           SKY/WX    TMP DP  RH WIND       PRES   REMARKS
MANITOWISH WTR FAIR      68  66  93 CALM      29.89F
ARBOR VITAE    FAIR      72  65  78 S3        29.90S
WOODRUFF       FAIR      72  65  78 S3        29.90S
RHINELANDER    FAIR      71  61  70 CALM      29.91F
EAGLE RIVER    NOT AVBL
LAND O LAKES   FAIR      71  62  74 CALM      29.92F
PHILLIPS       FAIR      69  65  88 CALM      29.90S
TOMAHAWK       FAIR      69  62  76 W5        29.91S
MEDFORD        FAIR      67  62  82 CALM      29.91R
MERRILL        FAIR      69  65  85 CALM      29.92R
$$

WIZ029-030-035-036-043>047-171600-
CENTRAL WISCONSIN

CITY           SKY/WX    TMP DP  RH WIND       PRES   REMARKS
WAUSAU         FAIR      68  63  84 S3        29.90R
MOSINEE        PTSUNNY   68  66  94 S5        29.92S
MARSHFIELD     FAIR      70  63  78 W5        29.90F
STEVENS POINT  FAIR      69  63  82 CALM      29.91F
WAUPACA        FAIR      73  65  75 CALM      29.91F
WAUTOMA        FAIR      70  64  81 CALM      29.92S
WISC RAPIDS    FAIR      71  63  75 CALM      29.91S
CAMP DOUGLAS   FAIR      70  68  92 CALM      29.91R
$$

WIZ011>013-019>022-031-037>040-048>050-171600-
NORTHEAST WISCONSIN

CITY           SKY/WX    TMP DP  RH WIND       PRES   REMARKS
ANTIGO         FAIR      69  64  83 CALM      29.92S
SHAWANO        FAIR      73  63  71 CALM      29.90R
OCONTO         FAIR      70  64  80 NW3       29.88S
STURGEON BAY   FAIR      71  66  84 VRB3      29.89F
GREEN BAY      FAIR      73  65  75 S5        29.90S
MANITOWOC      FAIR      74  65  73 W5        29.91S
APPLETON       PTSUNNY   72  59  64 W3        29.90S
CLINTONVILLE   FAIR      72  61  69 SW3       29.90S
OSHKOSH        FAIR      73  63  70 CALM      29.91S
$$

WIZ032>034-041-042-053>061-171600-
SOUTHWEST WISCONSIN

CITY           SKY/WX    TMP DP  RH WIND       PRES   REMARKS
LA CROSSE      FAIR      72  62  71 S6        29.90R
SPARTA         FAIR      67  61  79 CALM      29.92R
VIROQUA        FAIR      71  67  88 S3        29.93S
BOSCOBEL       FAIR      70  64  81 VRB3      29.91F
PRAIRIE DU CHI FAIR      69  64  84 CALM      29.89F
PLATTEVILLE    FAIR      69  68  95 E6        29.91F
$$

WIZ056-057-062-063-064-067-068-171600-
SOUTH CENTRAL WISCONSIN

CITY           SKY/WX    TMP DP  RH WIND       PRES   REMARKS
REEDSBURG      FAIR      69  66  89 CALM      29.92S
BARABOO/DELLS  FAIR      70  64  81 S3        29.93R
LONE ROCK      FAIR      68  63  84 CALM      29.92R
MINERAL POINT  FAIR      73  68  83 N3        29.92F
MADISON        PTSUNNY   73  62  68 S5        29.93R
MIDDLETON      FAIR     N/A N/A N/A CALM      29.94R
WATERTOWN      FAIR      70  67  90 S3        29.94R
MONROE         FAIR      72  61  67 E3        29.93S
JANESVILLE     PTSUNNY   72  64  78 NE5       29.92F
$$

WIZ051-052-058>065-066-070>072-171600-
SOUTHEAST WISCONSIN

CITY           SKY/WX    TMP DP  RH WIND       PRES   REMARKS
MILWAUKEE      PTSUNNY   75  63  66 SW7       29.94S
WAUKESHA       SUNNY     70  63  78 S3        29.96R
MILWAUKEE/TIMM SUNNY     73  61  64 S6        29.95R
RACINE         FAIR      74  64  71 W5        29.95S
KENOSHA        FAIR      77  67  71 N6        29.93F
FOND DU LAC    FAIR      74  64  71 VRB3      29.92F
SHEBOYGAN      FAIR      74  63  68 SW5       29.92R
WEST BEND      FAIR      73  63  68 SW8       29.94R
JUNEAU         FAIR      70  63  76 S3        29.95R
$$

LSZ147-162-171600-
LAKE SUPERIOR

STATION/POSITION TIME  TEMP    WIND        PRES    WAVE
                       AIR SEA DIR/SP/G            HT/PER
                 (UTC) (F)     (DEG/KT/KT) (MB)    (FT/S)
W MID LAKE BUOY  1450   65 63  220/  6/  8 1010.1F   0
DEVILS ISLAND    1400   69     220/  4/  6 1010.7R
SAXON HARBOR     1440   74     200/  5/  9 1010.5F
$$

LMZ867-665-643>646-171600-
LAKE MICHIGAN

STATION/POSITION TIME  TEMP    WIND        PRES    WAVE
                       AIR SEA DIR/SP/G            HT/PER
                 (UTC) (F)     (DEG/KT/KT) (MB)    (FT/S)
N MID LAKE BUOY  1450   66 70  280/ 10/ 12 1012.4F   2/ 6
NORTHPORT PIER   1440   68     270/  2/  4 1012.2F
KEWAUNEE LAKESHO 1430   72     280/  4/  7 1011.7F
SHEBOYGAN LAKESH 1500   72     170/  6/  7 1013.1R
PORT WASHINGTON  1440   78     230/  3/  7 1014.2S
MILWAUKEE LAKESH 1450   74     220/  4/  5   N/A
S MID LAKE BUOY  1450   72 72  270/  4/  6 1013.9R   1
KENOSHA   LAKESH 1500   72      20/  5/  6 1013.2
$$

TC  - TEMPERATURE IN CELSIUS
VSB - VISIBILITY IN STATUTE MILES
WCI - WIND CHILL INDEX
HX  - HEAT INDEX




USA.gov is the U.S. government's official web portal to all federal, state and local government web resources and services.